Regional Weather Roundup
Issued by NWS

Home | Current Version | Previous Version | Text Only | Print | Product List | Glossary On
Versions: 1 2 3 4 5 6 7 8 9 10 11 12 13 14 15 16 17 18 19 20 21 22 23 24 25 26 27 28 29 30 31 32 33 34 35 36 37 38 39 40 41 42 43 44 45 46 47 48 49 50
000
ASUS43 KTOP 222059
RWRKS

WEATHER ROUNDUP FOR KANSAS
NATIONAL WEATHER SERVICE GOODLAND KS
400 PM CDT TUE APR 22 2014

NOTE:  "FAIR" INDICATES FEW OR NO CLOUDS BELOW 12,000 FEET WITH NO
SIGNIFICANT WEATHER AND/OR OBSTRUCTIONS TO VISIBILITY.

KSZ001>006-013>018-027>032-041>047-222200-
NORTHWEST KANSAS

CITY           SKY/WX    TMP DP  RH WIND       PRES   REMARKS
GOODLAND       SUNNY     79  45  29 S31G40    29.84F
HAYS           SUNNY    N/A N/A N/A S24G31    29.95F
HILL CITY      SUNNY     77  38  24 S18G32    29.93F
RUSSELL        SUNNY     79  31  17 S22G35    29.97F
$$

KSZ061>065-074>080-084>089-222200-
SOUTHWEST KANSAS

CITY           SKY/WX    TMP DP  RH WIND       PRES   REMARKS
DODGE CITY     MOSUNNY   75  33  21 S20G33    29.97F
ELKHART          N/A     81  46  29 S25         N/A
GARDEN CITY    MOSUNNY   79  38  22 S28G38    29.93F
GREAT BEND     SUNNY     77  30  18 S22G32    29.97F
LIBERAL        SUNNY     81  43  26 S21G32    29.96F
$$

KSZ066>073-081>083-090>101-222200-
SOUTHEAST KANSAS

CITY           SKY/WX    TMP DP  RH WIND       PRES   REMARKS
CHANUTE        SUNNY     72  35  25 VRB6      30.05F
COFFEYVILLE    SUNNY     74  32  21 NE10      30.03F
HUTCHINSON     MOSUNNY   77  30  17 S13       30.02F
NEWTON         SUNNY     73  28  19 SE12      30.07F
PARSONS        SUNNY     74  31  20 NE6       30.05F
WICHITA INTL   MOSUNNY   75  30  19 SE5       30.03F
WICHITA JABRA  PTSUNNY   75  32  20 SE12      30.03F
WINFIELD       SUNNY     76  31  19 E10       30.04F
$$

KSZ007>012-019>026-033>040-048>060-102>105-222200-
NORTHEAST KANSAS

CITY           SKY/WX    TMP DP  RH WIND       PRES   REMARKS
CONCORDIA      MOSUNNY   74  29  19 S14G22    30.01F
EMPORIA        SUNNY     71  31  22 E7        30.05F
LAWRENCE       SUNNY     71  31  22 VRB6      30.05F
MANHATTAN      SUNNY     73  32  22 E10       30.03F
OLATHE IND     SUNNY     68  28  22 NW7       30.05F
OLATHE EXE     SUNNY     68  29  23 VRB3      30.04F
SALINA         PTSUNNY   78  29  16 SE9G18    30.02F
TOPEKA BILLARD SUNNY     72  33  24 CALM      30.05F
TOPEKA FORBES  SUNNY     70  32  24 VRB6      30.05F
$$



USA.gov is the U.S. government's official web portal to all federal, state and local government web resources and services.